Terug naar catalogus

STARLINK-31766

ActiefCommunicatieVLEO
NORAD 59723·PAYLOAD·🇺🇸 United States

Gelanceerd May 10, 2024 vanaf Vandenberg Space Force Base

Loading…

Volgende Passages (komende 24 uur)

TLE

VersSource: CelesTrak SupGP

Epoch: Sep 15, 2026, 02:40 UTC

1 59723C 24088R   26258.11159722  .00072517  00000+0  21428-2 0  2587
2 59723  53.1585 338.5666 0001172  90.2004 307.9626 15.34350370    13

Volg STARLINK-31766 in realtime met AllMySat

Download on the App Store